Flag for Canada Weather past 2 weeks in Greater Sudbury, Ontario, Canada

Now
-8 °F

Sunny.


Feels Like: -28 °F
Forecast: -8 / 7 °F
Wind: 13 mph from North

Location: Sudbury

Current Time: Jan 25, 2015 at 9:19:56 AM

Latest Report: Jan 25, 2015 at 9:00 AM


Visibility: 20 mi

Pressure: 30.01 "Hg

Humidity: 70%

Dew point: -15 °F

Location of Greater SudburyLocation

Historic Weather in Greater Sudbury — Graph

°F

Greater Sudbury temperature yesterday

Maximum temperature yesterday: 32 °F (at 1:00 PM)
Minimum temperature yesterday: 5 °F (at 9:00 PM)
Average temperature yesterday: 24 °F

Past Weeks' High & Low Weather Summary

 TemperatureHumidityPressure
High34 °F (Jan 18, 9:00 AM)100% (Jan 15, 1:00 AM)30.83 "Hg (Jan 15, 1:00 AM)
Low-22 °F (Jan 13, 8:00 AM)47% (Jan 20, 3:00 PM)29.36 "Hg (Jan 24, 2:51 PM)
Average9 °F79%30.06 "Hg
* Reported Jan 10 8:00 AM — Jan 25 8:00 AM, Greater Sudbury, Weather by CustomWeather, © 2014

Note: Actual official high and low records may vary slightly from our data, if they occured in-between our weather recording intervals... More about our weather records

Advertising

Greater Sudbury weather history for previous 24 hours

 ConditionsComfort  
Time TempWeatherWind HumidityBarometerVisibility
8:00 AM
Jan 25
-8 °FSunny.12 mph70%29.98 "Hg20 mi
7:00 AM-8 °FClear.9 mph77%29.96 "Hg15 mi
6:00 AM-8 °FPassing clouds.9 mph77%29.91 "Hg15 mi
5:00 AM-8 °FPassing clouds.8 mph84%29.87 "Hg15 mi
4:00 AM-6 °FPassing clouds.8 mph77%29.83 "Hg15 mi
3:00 AM-4 °FPassing clouds.10 mph77%29.80 "Hg15 mi
2:00 AM-2 °FPassing clouds.7 mph77%29.76 "Hg15 mi
1:00 AM0 °FPassing clouds.14 mph71%29.72 "Hg15 mi
12:00 AM1 °FPassing clouds.16 mph71%29.70 "Hg15 mi
11:00 PM
Jan 24
5 °FLight snow. Passing clouds.16 mph72%29.67 "Hg15 mi
10:00 PM5 °FLight snow. Passing clouds.18 mph72%29.66 "Hg15 mi
9:00 PM5 °FLight snow. Passing clouds.18 mph78%29.64 "Hg15 mi
8:00 PM7 °FPassing clouds.15 mph72%29.61 "Hg15 mi
7:00 PM9 °FLight snow. Passing clouds.20 mph72%29.57 "Hg15 mi
6:00 PM16 °FLight snow. Partly cloudy.20 mph67%29.51 "Hg15 mi
5:00 PM19 °FLight snow. More clouds than sun.18 mph79%29.46 "Hg15 mi
4:00 PM23 °FLight snow. Partly sunny.20 mph80%29.42 "Hg20 mi
3:00 PM27 °FLight snow. Mostly cloudy.17 mph93%29.38 "Hg1 mi
2:51 PM32 °FLight snow. Mostly cloudy.15 mph80%29.36 "Hg1 mi
2:00 PM32 °FLight snow. Low clouds.6 mph87%29.37 "Hg4 mi
1:00 PM32 °FLight snow. Low clouds.8 mph87%29.39 "Hg4 mi
12:00 PM30 °FLight snow. Low clouds.8 mph93%29.42 "Hg6 mi
11:00 AM30 °FLight snow. Low clouds.9 mph93%29.45 "Hg4 mi
10:00 AM30 °FLight snow. Low clouds.7 mph93%29.46 "Hg4 mi
9:00 AM28 °FLight snow. Low clouds.7 mph100%29.46 "Hg3 mi
Weather by CustomWeather, © 2014

See weather overviewHow to use our weather pages